Time,TemperatureF,DewpointF,PressureIn,WindDirection,WindDirectionDegrees,WindSpeedMPH,WindSpeedGustMPH,Humidity,HourlyPrecipIn,Conditions,Clouds,dailyrainin,SoftwareType,DateUTC
2013-11-29 00:01:00,29.9,23.5,30.45,East,90,1.1,1.8,77,0.00,,,0.00,WUHU216HW,2013-11-29 05:01:00,
2013-11-29 00:06:00,29.9,23.9,30.45,East,90,1.1,1.3,78,0.00,,,0.00,WUHU216HW,2013-11-29 05:06:00,
2013-11-29 00:11:00,29.9,23.9,30.45,ENE,68,1.1,1.1,78,0.00,,,0.00,WUHU216HW,2013-11-29 05:11:00,
2013-11-29 00:16:00,29.9,23.9,30.44,ENE,68,1.1,1.1,78,0.00,,,0.00,WUHU216HW,2013-11-29 05:16:00,
2013-11-29 00:21:00,29.9,23.9,30.44,ENE,68,1.1,1.1,78,0.00,,,0.00,WUHU216HW,2013-11-29 05:21:00,
2013-11-29 00:26:00,29.9,24.1,30.44,ENE,68,0.9,1.1,79,0.00,,,0.00,WUHU216HW,2013-11-29 05:26:00,
2013-11-29 00:31:00,29.9,24.1,30.44,ENE,68,0.9,1.1,79,0.00,,,0.00,WUHU216HW,2013-11-29 05:31:00,
2013-11-29 00:36:00,29.9,24.1,30.44,ENE,68,0.9,1.1,79,0.00,,,0.00,WUHU216HW,2013-11-29 05:36:00,
2013-11-29 00:41:00,29.9,24.1,30.44,ENE,68,1.1,1.3,79,0.00,,,0.00,WUHU216HW,2013-11-29 05:41:00,
2013-11-29 00:46:00,29.9,24.1,30.44,East,90,1.1,1.3,79,0.00,,,0.00,WUHU216HW,2013-11-29 05:46:00,
2013-11-29 00:51:00,30.1,24.3,30.44,ENE,68,0.4,1.3,79,0.00,,,0.00,WUHU216HW,2013-11-29 05:51:00,
2013-11-29 00:56:00,29.9,24.1,30.44,East,90,0.4,1.3,79,0.00,,,0.00,WUHU216HW,2013-11-29 05:56:00,
2013-11-29 01:02:00,29.9,24.1,30.44,East,90,0.4,1.1,79,0.00,,,0.00,WUHU216HW,2013-11-29 06:02:00,
2013-11-29 01:07:00,29.9,24.1,30.45,East,90,0.4,1.1,79,0.00,,,0.00,WUHU216HW,2013-11-29 06:07:00,
2013-11-29 01:12:00,29.9,24.1,30.45,East,90,0.9,1.1,79,0.00,,,0.00,WUHU216HW,2013-11-29 06:12:00,
2013-11-29 01:17:00,29.9,24.1,30.45,East,90,0.0,0.9,79,0.00,,,0.00,WUHU216HW,2013-11-29 06:17:00,
2013-11-29 01:22:00,29.7,23.9,30.45,ENE,68,0.4,0.7,79,0.00,,,0.00,WUHU216HW,2013-11-29 06:22:00,
2013-11-29 01:27:00,29.5,23.8,30.44,East,90,0.7,0.9,79,0.00,,,0.00,WUHU216HW,2013-11-29 06:27:00,
2013-11-29 01:32:00,29.5,23.8,30.44,ENE,68,0.7,0.9,79,0.00,,,0.00,WUHU216HW,2013-11-29 06:32:00,
2013-11-29 01:37:00,29.3,23.7,30.45,ENE,68,0.0,0.9,79,0.00,,,0.00,WUHU216HW,2013-11-29 06:37:00,
2013-11-29 01:42:00,29.3,23.7,30.45,ENE,68,0.0,0.7,79,0.00,,,0.00,WUHU216HW,2013-11-29 06:42:00,
2013-11-29 01:47:00,29.2,23.5,30.45,ENE,68,0.0,0.0,79,0.00,,,0.00,WUHU216HW,2013-11-29 06:47:00,
2013-11-29 01:52:00,29.2,23.5,30.45,ENE,68,0.0,0.0,79,0.00,,,0.00,WUHU216HW,2013-11-29 06:52:00,
2013-11-29 01:57:00,29.2,23.5,30.45,ENE,68,0.0,0.0,79,0.00,,,0.00,WUHU216HW,2013-11-29 06:57:00,
2013-11-29 02:02:00,29.2,23.8,30.45,ENE,68,0.0,0.0,80,0.00,,,0.00,WUHU216HW,2013-11-29 07:02:00,
2013-11-29 02:07:00,29.2,23.5,30.45,ENE,68,0.0,0.0,79,0.00,,,0.00,WUHU216HW,2013-11-29 07:07:00,
2013-11-29 02:12:00,29.0,23.3,30.45,ENE,68,0.0,0.0,79,0.00,,,0.00,WUHU216HW,2013-11-29 07:12:00,
2013-11-29 02:17:00,29.0,23.6,30.45,ENE,68,0.0,0.0,80,0.00,,,0.00,WUHU216HW,2013-11-29 07:17:00,
2013-11-29 02:22:00,28.8,23.4,30.46,ENE,68,0.0,0.0,80,0.00,,,0.00,WUHU216HW,2013-11-29 07:22:00,
2013-11-29 02:27:00,28.8,23.4,30.45,ENE,68,0.0,0.0,80,0.00,,,0.00,WUHU216HW,2013-11-29 07:27:00,
2013-11-29 02:32:00,29.0,23.6,30.46,ENE,68,0.0,0.0,80,0.00,,,0.00,WUHU216HW,2013-11-29 07:32:00,
2013-11-29 02:37:00,29.0,23.6,30.46,ENE,68,0.0,0.0,80,0.00,,,0.00,WUHU216HW,2013-11-29 07:37:00,
2013-11-29 02:42:00,29.0,23.6,30.46,ENE,68,0.0,0.0,80,0.00,,,0.00,WUHU216HW,2013-11-29 07:42:00,
2013-11-29 02:47:00,29.0,23.6,30.46,ENE,68,0.0,0.0,80,0.00,,,0.00,WUHU216HW,2013-11-29 07:47:00,
2013-11-29 02:52:00,29.0,23.6,30.46,ENE,68,0.0,0.0,80,0.00,,,0.00,WUHU216HW,2013-11-29 07:52:00,
2013-11-29 02:57:00,28.8,23.4,30.46,ENE,68,0.0,0.0,80,0.00,,,0.00,WUHU216HW,2013-11-29 07:57:00,
2013-11-29 03:02:00,28.8,23.4,30.46,ENE,68,0.0,0.0,80,0.00,,,0.00,WUHU216HW,2013-11-29 08:02:00,
2013-11-29 03:07:00,28.8,23.4,30.46,ENE,68,0.0,0.2,80,0.00,,,0.00,WUHU216HW,2013-11-29 08:07:00,
2013-11-29 03:12:00,28.8,23.4,30.46,ENE,68,0.0,0.2,80,0.00,,,0.00,WUHU216HW,2013-11-29 08:12:00,
2013-11-29 03:17:00,28.8,23.7,30.46,ENE,68,0.0,0.0,81,0.00,,,0.00,WUHU216HW,2013-11-29 08:17:00,
2013-11-29 03:22:00,28.8,23.7,30.46,ENE,68,0.0,0.0,81,0.00,,,0.00,WUHU216HW,2013-11-29 08:22:00,
2013-11-29 03:27:00,28.8,23.7,30.46,ENE,68,0.0,0.0,81,0.00,,,0.00,WUHU216HW,2013-11-29 08:27:00,
2013-11-29 03:32:00,28.8,23.7,30.46,ENE,68,0.2,0.2,81,0.00,,,0.00,WUHU216HW,2013-11-29 08:32:00,
2013-11-29 03:37:00,28.8,23.7,30.46,ENE,68,0.0,0.2,81,0.00,,,0.00,WUHU216HW,2013-11-29 08:37:00,
2013-11-29 03:42:00,28.8,23.7,30.46,ENE,68,0.0,0.2,81,0.00,,,0.00,WUHU216HW,2013-11-29 08:42:00,
2013-11-29 03:47:00,28.8,23.7,30.46,ENE,68,0.0,0.0,81,0.00,,,0.00,WUHU216HW,2013-11-29 08:47:00,
2013-11-29 03:52:00,28.6,23.5,30.46,ENE,68,0.0,0.0,81,0.00,,,0.00,WUHU216HW,2013-11-29 08:52:00,
2013-11-29 03:57:00,28.4,23.3,30.46,ENE,68,0.0,0.0,81,0.00,,,0.00,WUHU216HW,2013-11-29 08:57:00,
2013-11-29 04:02:00,28.4,23.3,30.46,ENE,68,0.0,0.0,81,0.00,,,0.00,WUHU216HW,2013-11-29 09:02:00,
2013-11-29 04:07:00,28.4,23.3,30.46,ENE,68,0.0,0.0,81,0.00,,,0.00,WUHU216HW,2013-11-29 09:07:00,
2013-11-29 04:12:00,28.4,23.3,30.46,ENE,68,0.0,0.0,81,0.00,,,0.00,WUHU216HW,2013-11-29 09:12:00,
2013-11-29 04:17:00,28.4,23.3,30.45,ENE,68,0.0,0.0,81,0.00,,,0.00,WUHU216HW,2013-11-29 09:17:00,
2013-11-29 04:22:00,28.3,23.1,30.46,ENE,68,0.0,0.0,81,0.00,,,0.00,WUHU216HW,2013-11-29 09:22:00,
2013-11-29 04:27:00,28.3,23.4,30.45,ENE,68,0.0,0.0,82,0.00,,,0.00,WUHU216HW,2013-11-29 09:27:00,
2013-11-29 04:32:00,28.3,23.4,30.46,ENE,68,0.0,0.0,82,0.00,,,0.00,WUHU216HW,2013-11-29 09:32:00,
2013-11-29 04:37:00,28.3,23.4,30.46,ENE,68,0.0,0.0,82,0.00,,,0.00,WUHU216HW,2013-11-29 09:37:00,
2013-11-29 04:42:00,28.1,23.2,30.46,ENE,68,0.0,0.0,82,0.00,,,0.00,WUHU216HW,2013-11-29 09:42:00,
2013-11-29 04:47:00,28.1,23.2,30.46,ENE,68,0.0,0.4,82,0.00,,,0.00,WUHU216HW,2013-11-29 09:47:00,
2013-11-29 04:52:00,28.1,23.2,30.46,ENE,68,0.0,0.4,82,0.00,,,0.00,WUHU216HW,2013-11-29 09:52:00,
2013-11-29 04:57:00,28.1,23.2,30.46,ENE,68,0.0,0.2,82,0.00,,,0.00,WUHU216HW,2013-11-29 09:57:00,
2013-11-29 05:02:00,27.9,23.0,30.47,ENE,68,0.0,0.2,82,0.00,,,0.00,WUHU216HW,2013-11-29 10:02:00,
2013-11-29 05:07:00,27.9,23.0,30.47,ENE,68,0.0,0.0,82,0.00,,,0.00,WUHU216HW,2013-11-29 10:07:00,
2013-11-29 05:12:00,27.7,22.9,30.47,ENE,68,0.0,0.0,82,0.00,,,0.00,WUHU216HW,2013-11-29 10:12:00,
2013-11-29 05:17:00,27.7,22.9,30.47,ENE,68,0.2,0.4,82,0.00,,,0.00,WUHU216HW,2013-11-29 10:17:00,
2013-11-29 05:22:00,27.7,22.9,30.47,East,90,0.4,0.4,82,0.00,,,0.00,WUHU216HW,2013-11-29 10:22:00,
2013-11-29 05:27:00,27.5,23.1,30.47,East,90,0.4,0.4,83,0.00,,,0.00,WUHU216HW,2013-11-29 10:27:00,
2013-11-29 05:32:00,27.5,23.1,30.47,East,90,0.4,0.4,83,0.00,,,0.00,WUHU216HW,2013-11-29 10:32:00,
2013-11-29 05:37:00,27.4,22.9,30.48,East,90,0.4,0.9,83,0.00,,,0.00,WUHU216HW,2013-11-29 10:37:00,
2013-11-29 05:42:00,27.4,22.9,30.48,East,90,0.4,0.9,83,0.00,,,0.00,WUHU216HW,2013-11-29 10:42:00,
2013-11-29 05:47:00,27.4,22.9,30.48,East,90,0.0,0.7,83,0.00,,,0.00,WUHU216HW,2013-11-29 10:47:00,
2013-11-29 05:52:00,27.2,22.7,30.48,East,90,0.0,0.7,83,0.00,,,0.00,WUHU216HW,2013-11-29 10:52:00,
2013-11-29 05:57:00,27.4,22.9,30.48,East,90,0.0,0.0,83,0.00,,,0.00,WUHU216HW,2013-11-29 10:57:00,
2013-11-29 06:02:00,27.4,22.9,30.48,East,90,0.0,0.0,83,0.00,,,0.00,WUHU216HW,2013-11-29 11:02:00,
2013-11-29 06:07:00,27.4,22.9,30.48,East,90,0.0,0.0,83,0.00,,,0.00,WUHU216HW,2013-11-29 11:07:00,
2013-11-29 06:12:00,27.4,22.9,30.48,East,90,0.0,0.0,83,0.00,,,0.00,WUHU216HW,2013-11-29 11:12:00,
2013-11-29 06:17:00,27.4,22.9,30.49,East,90,0.0,0.0,83,0.00,,,0.00,WUHU216HW,2013-11-29 11:17:00,
2013-11-29 06:22:00,27.4,22.9,30.49,East,90,0.0,0.0,83,0.00,,,0.00,WUHU216HW,2013-11-29 11:22:00,
2013-11-29 06:27:00,27.4,23.1,30.49,East,90,0.0,0.0,84,0.00,,,0.00,WUHU216HW,2013-11-29 11:27:00,
2013-11-29 06:32:00,27.4,23.1,30.49,East,90,0.0,0.0,84,0.00,,,0.00,WUHU216HW,2013-11-29 11:32:00,
2013-11-29 06:37:00,27.4,23.1,30.50,East,90,0.0,0.0,84,0.00,,,0.00,WUHU216HW,2013-11-29 11:37:00,
2013-11-29 06:42:00,27.4,22.9,30.50,East,90,0.0,0.0,83,0.00,,,0.00,WUHU216HW,2013-11-29 11:42:00,
2013-11-29 06:47:00,27.4,22.9,30.50,East,90,0.0,0.0,83,0.00,,,0.00,WUHU216HW,2013-11-29 11:47:00,
2013-11-29 06:52:00,27.4,22.9,30.50,East,90,0.0,0.4,83,0.00,,,0.00,WUHU216HW,2013-11-29 11:52:00,
2013-11-29 06:57:00,27.2,22.7,30.50,East,90,0.0,0.4,83,0.00,,,0.00,WUHU216HW,2013-11-29 11:57:00,
2013-11-29 07:02:00,27.2,22.7,30.50,East,90,0.0,0.2,83,0.00,,,0.00,WUHU216HW,2013-11-29 12:02:00,
2013-11-29 07:07:00,27.2,22.7,30.50,East,90,0.0,0.2,83,0.00,,,0.00,WUHU216HW,2013-11-29 12:07:00,
2013-11-29 07:12:00,27.2,22.7,30.51,East,90,0.0,0.0,83,0.00,,,0.00,WUHU216HW,2013-11-29 12:12:00,
2013-11-29 07:17:00,27.0,22.5,30.51,East,90,0.0,0.0,83,0.00,,,0.00,WUHU216HW,2013-11-29 12:17:00,
2013-11-29 07:22:00,27.0,22.5,30.51,East,90,0.0,0.0,83,0.00,,,0.00,WUHU216HW,2013-11-29 12:22:00,
2013-11-29 07:27:00,27.0,22.5,30.52,East,90,0.0,0.0,83,0.00,,,0.00,WUHU216HW,2013-11-29 12:27:00,
2013-11-29 07:32:00,27.0,22.5,30.52,East,90,0.0,0.0,83,0.00,,,0.00,WUHU216HW,2013-11-29 12:32:00,
2013-11-29 07:37:00,27.0,22.5,30.52,East,90,0.0,0.0,83,0.00,,,0.00,WUHU216HW,2013-11-29 12:37:00,
2013-11-29 07:42:00,27.0,22.5,30.52,East,90,0.0,0.0,83,0.00,,,0.00,WUHU216HW,2013-11-29 12:42:00,
2013-11-29 07:47:00,26.8,22.3,30.52,East,90,0.0,0.0,83,0.00,,,0.00,WUHU216HW,2013-11-29 12:47:00,
2013-11-29 07:52:00,26.8,22.6,30.52,East,90,0.0,0.0,84,0.00,,,0.00,WUHU216HW,2013-11-29 12:52:00,
2013-11-29 07:57:00,26.8,22.6,30.52,East,90,0.0,0.0,84,0.00,,,0.00,WUHU216HW,2013-11-29 12:57:00,
2013-11-29 08:02:00,26.8,22.6,30.52,East,90,0.0,0.0,84,0.00,,,0.00,WUHU216HW,2013-11-29 13:02:00,
2013-11-29 08:07:00,27.0,22.8,30.52,East,90,0.0,0.0,84,0.00,,,0.00,WUHU216HW,2013-11-29 13:07:00,
2013-11-29 08:12:00,27.0,22.8,30.52,ESE,113,0.4,0.4,84,0.00,,,0.00,WUHU216HW,2013-11-29 13:12:00,
2013-11-29 08:17:00,27.0,22.8,30.52,ESE,113,0.9,0.9,84,0.00,,,0.00,WUHU216HW,2013-11-29 13:17:00,
2013-11-29 08:22:00,27.0,22.8,30.52,ESE,113,1.1,1.1,84,0.00,,,0.00,WUHU216HW,2013-11-29 13:22:00,
2013-11-29 08:27:00,27.0,22.8,30.52,ESE,113,1.1,1.8,84,0.00,,,0.00,WUHU216HW,2013-11-29 13:27:00,
2013-11-29 08:32:00,27.2,23.0,30.53,ESE,113,0.0,1.8,84,0.00,,,0.00,WUHU216HW,2013-11-29 13:32:00,
2013-11-29 08:37:00,27.4,23.1,30.53,ESE,113,0.2,1.1,84,0.00,,,0.00,WUHU216HW,2013-11-29 13:37:00,
2013-11-29 08:42:00,27.5,23.3,30.53,ESE,113,0.4,1.6,84,0.00,,,0.00,WUHU216HW,2013-11-29 13:42:00,
2013-11-29 08:47:00,27.9,23.7,30.53,East,90,1.1,1.8,84,0.00,,,0.00,WUHU216HW,2013-11-29 13:47:00,
2013-11-29 08:52:00,28.3,24.3,30.53,ESE,113,1.6,1.8,85,0.00,,,0.00,WUHU216HW,2013-11-29 13:52:00,
2013-11-29 08:57:00,28.6,24.7,30.53,East,90,0.9,2.0,85,0.00,,,0.00,WUHU216HW,2013-11-29 13:57:00,
2013-11-29 09:02:00,29.0,25.0,30.53,East,90,2.2,2.5,85,0.00,,,0.00,WUHU216HW,2013-11-29 14:02:00,
2013-11-29 09:07:00,29.3,25.4,30.53,ENE,68,1.1,2.5,85,0.00,,,0.00,WUHU216HW,2013-11-29 14:07:00,
2013-11-29 09:12:00,29.7,25.7,30.53,ESE,113,0.7,2.2,85,0.00,,,0.00,WUHU216HW,2013-11-29 14:12:00,
2013-11-29 09:17:00,29.9,25.9,30.53,ENE,68,0.4,2.0,85,0.00,,,0.00,WUHU216HW,2013-11-29 14:17:00,
2013-11-29 09:22:00,30.2,26.3,30.53,NNE,23,0.0,2.5,85,0.00,,,0.00,WUHU216HW,2013-11-29 14:22:00,
2013-11-29 09:27:00,30.6,26.6,30.53,East,90,1.3,2.5,85,0.00,,,0.00,WUHU216HW,2013-11-29 14:27:00,
2013-11-29 09:32:00,31.0,26.7,30.54,East,90,2.0,2.9,84,0.00,,,0.00,WUHU216HW,2013-11-29 14:32:00,
2013-11-29 09:37:00,31.3,27.1,30.54,East,90,1.8,3.1,84,0.00,,,0.00,WUHU216HW,2013-11-29 14:37:00,
2013-11-29 09:42:00,31.7,27.5,30.54,ESE,113,2.5,3.1,84,0.00,,,0.00,WUHU216HW,2013-11-29 14:42:00,
2013-11-29 09:47:00,32.0,27.6,30.54,East,90,2.5,2.5,83,0.00,,,0.00,WUHU216HW,2013-11-29 14:47:00,
2013-11-29 09:52:00,32.2,27.6,30.54,East,90,0.4,2.5,83,0.00,,,0.00,WUHU216HW,2013-11-29 14:52:00,
2013-11-29 09:57:00,32.8,28.2,30.54,East,90,1.1,2.5,83,0.00,,,0.00,WUHU216HW,2013-11-29 14:57:00,
2013-11-29 10:02:00,32.9,28.4,30.54,East,90,1.6,2.5,83,0.00,,,0.00,WUHU216HW,2013-11-29 15:02:00,
2013-11-29 10:07:00,33.3,28.6,30.55,ENE,68,2.5,3.1,83,0.00,,,0.00,WUHU216HW,2013-11-29 15:07:00,
2013-11-29 10:12:00,33.7,28.7,30.55,ESE,113,3.4,4.0,82,0.00,,,0.00,WUHU216HW,2013-11-29 15:12:00,
2013-11-29 10:17:00,34.0,29.4,30.54,ENE,68,0.7,4.0,83,0.00,,,0.00,WUHU216HW,2013-11-29 15:17:00,
2013-11-29 10:22:00,34.2,29.2,30.54,East,90,1.1,3.4,82,0.00,,,0.00,WUHU216HW,2013-11-29 15:22:00,
2013-11-29 10:27:00,34.6,29.5,30.54,East,90,1.8,3.1,82,0.00,,,0.00,WUHU216HW,2013-11-29 15:27:00,
2013-11-29 10:32:00,34.9,29.9,30.55,East,90,3.4,4.0,82,0.00,,,0.00,WUHU216HW,2013-11-29 15:32:00,
2013-11-29 10:37:00,35.1,29.8,30.55,ENE,68,2.5,4.0,81,0.00,,,0.00,WUHU216HW,2013-11-29 15:37:00,
2013-11-29 10:42:00,35.5,30.2,30.55,NE,45,2.5,3.4,81,0.00,,,0.00,WUHU216HW,2013-11-29 15:42:00,
2013-11-29 10:47:00,35.8,30.2,30.55,North,0,1.8,3.4,80,0.00,,,0.00,WUHU216HW,2013-11-29 15:47:00,
2013-11-29 10:52:00,36.2,30.6,30.55,East,90,0.7,3.8,80,0.00,,,0.00,WUHU216HW,2013-11-29 15:52:00,
2013-11-29 10:57:00,36.5,30.6,30.55,East,90,2.0,4.7,79,0.00,,,0.00,WUHU216HW,2013-11-29 15:57:00,
2013-11-29 11:02:00,37.1,30.9,30.54,ENE,68,1.8,4.7,78,0.00,,,0.00,WUHU216HW,2013-11-29 16:02:00,
2013-11-29 11:07:00,37.4,30.9,30.54,ESE,113,3.8,4.9,77,0.00,,,0.00,WUHU216HW,2013-11-29 16:07:00,
2013-11-29 11:12:00,37.8,30.9,30.54,East,90,0.9,4.9,76,0.00,,,0.00,WUHU216HW,2013-11-29 16:12:00,
2013-11-29 11:17:00,38.0,30.8,30.54,SE,135,2.9,4.0,75,0.00,,,0.00,WUHU216HW,2013-11-29 16:17:00,
2013-11-29 11:22:00,38.5,31.0,30.54,ESE,113,2.7,3.4,74,0.00,,,0.00,WUHU216HW,2013-11-29 16:22:00,
2013-11-29 11:27:00,38.7,30.8,30.54,East,90,1.3,3.8,73,0.00,,,0.00,WUHU216HW,2013-11-29 16:27:00,
2013-11-29 11:32:00,39.2,31.2,30.53,ENE,68,4.7,5.4,73,0.00,,,0.00,WUHU216HW,2013-11-29 16:32:00,
2013-11-29 11:37:00,39.4,30.8,30.53,East,90,0.2,5.4,71,0.00,,,0.00,WUHU216HW,2013-11-29 16:37:00,
2013-11-29 11:42:00,40.0,31.3,30.53,ESE,113,0.9,4.7,71,0.00,,,0.00,WUHU216HW,2013-11-29 16:42:00,
2013-11-29 11:47:00,40.3,31.3,30.53,East,90,2.5,3.6,70,0.00,,,0.00,WUHU216HW,2013-11-29 16:47:00,
2013-11-29 11:52:00,40.7,31.3,30.52,East,90,0.9,3.6,69,0.00,,,0.00,WUHU216HW,2013-11-29 16:52:00,
2013-11-29 11:57:00,40.9,31.2,30.53,SE,135,1.3,3.1,68,0.00,,,0.00,WUHU216HW,2013-11-29 16:57:00,
2013-11-29 12:02:00,41.0,31.3,30.53,North,0,0.7,2.5,68,0.00,,,0.00,WUHU216HW,2013-11-29 17:02:00,
2013-11-29 12:07:00,41.4,31.7,30.52,East,90,1.1,4.3,68,0.00,,,0.00,WUHU216HW,2013-11-29 17:07:00,
2013-11-29 12:12:00,41.9,31.8,30.52,NNE,23,1.1,4.3,67,0.00,,,0.00,WUHU216HW,2013-11-29 17:12:00,
2013-11-29 12:17:00,42.1,32.0,30.52,SSE,158,1.3,4.3,67,0.00,,,0.00,WUHU216HW,2013-11-29 17:17:00,
2013-11-29 12:22:00,42.3,31.8,30.52,ESE,113,1.6,4.7,66,0.00,,,0.00,WUHU216HW,2013-11-29 17:22:00,
2013-11-29 12:27:00,42.5,31.5,30.52,NNE,23,0.0,4.7,65,0.00,,,0.00,WUHU216HW,2013-11-29 17:27:00,
2013-11-29 12:32:00,42.7,31.7,30.51,NNE,23,0.9,3.4,65,0.00,,,0.00,WUHU216HW,2013-11-29 17:32:00,
2013-11-29 12:37:00,43.6,32.1,30.51,NNE,23,0.9,2.9,64,0.00,,,0.00,WUHU216HW,2013-11-29 17:37:00,
2013-11-29 12:42:00,44.8,33.4,30.51,East,90,2.7,2.9,64,0.00,,,0.00,WUHU216HW,2013-11-29 17:42:00,
2013-11-29 12:47:00,45.5,32.9,30.51,NE,45,1.3,2.7,61,0.00,,,0.00,WUHU216HW,2013-11-29 17:47:00,
2013-11-29 12:52:00,46.3,33.6,30.51,SE,135,4.3,4.3,61,0.00,,,0.00,WUHU216HW,2013-11-29 17:52:00,
2013-11-29 12:57:00,47.2,34.0,30.50,ESE,113,0.7,4.3,60,0.00,,,0.00,WUHU216HW,2013-11-29 17:57:00,
2013-11-29 13:02:00,48.4,34.8,30.50,ESE,113,0.4,4.3,59,0.00,,,0.00,WUHU216HW,2013-11-29 18:02:00,
2013-11-29 13:07:00,49.0,34.4,30.50,North,0,1.8,4.3,57,0.00,,,0.00,WUHU216HW,2013-11-29 18:07:00,
2013-11-29 13:12:00,48.8,34.2,30.50,NNE,23,0.7,4.3,57,0.00,,,0.00,WUHU216HW,2013-11-29 18:12:00,
2013-11-29 13:17:00,48.4,33.4,30.50,North,0,0.0,3.4,56,0.00,,,0.00,WUHU216HW,2013-11-29 18:17:00,
2013-11-29 13:22:00,48.2,33.2,30.49,WSW,248,0.4,2.7,56,0.00,,,0.00,WUHU216HW,2013-11-29 18:22:00,
2013-11-29 13:27:00,47.9,32.9,30.49,East,90,0.4,2.9,56,0.00,,,0.00,WUHU216HW,2013-11-29 18:27:00,
2013-11-29 13:32:00,47.7,32.7,30.49,ENE,68,0.0,4.7,56,0.00,,,0.00,WUHU216HW,2013-11-29 18:32:00,
2013-11-29 13:37:00,47.7,32.2,30.49,ESE,113,1.3,4.7,55,0.00,,,0.00,WUHU216HW,2013-11-29 18:37:00,
2013-11-29 13:42:00,47.9,32.0,30.49,SSE,158,1.6,4.0,54,0.00,,,0.00,WUHU216HW,2013-11-29 18:42:00,
2013-11-29 13:47:00,48.1,32.1,30.48,ESE,113,0.9,3.8,54,0.00,,,0.00,WUHU216HW,2013-11-29 18:47:00,
2013-11-29 13:52:00,47.9,32.0,30.48,ESE,113,3.4,3.8,54,0.00,,,0.00,WUHU216HW,2013-11-29 18:52:00,
2013-11-29 13:57:00,47.9,32.0,30.47,ESE,113,0.2,4.0,54,0.00,,,0.00,WUHU216HW,2013-11-29 18:57:00,
2013-11-29 14:02:00,47.7,32.2,30.47,SE,135,2.5,4.0,55,0.00,,,0.00,WUHU216HW,2013-11-29 19:02:00,
2013-11-29 14:07:00,47.9,32.0,30.47,ENE,68,1.8,4.0,54,0.00,,,0.00,WUHU216HW,2013-11-29 19:07:00,
2013-11-29 14:12:00,47.9,32.0,30.47,NNE,23,0.9,4.0,54,0.00,,,0.00,WUHU216HW,2013-11-29 19:12:00,
2013-11-29 14:17:00,48.2,32.3,30.47,ESE,113,2.0,3.8,54,0.00,,,0.00,WUHU216HW,2013-11-29 19:17:00,
2013-11-29 14:22:00,48.4,32.5,30.47,East,90,1.8,3.1,54,0.00,,,0.00,WUHU216HW,2013-11-29 19:22:00,
2013-11-29 14:27:00,48.4,32.5,30.47,ESE,113,0.9,3.4,54,0.00,,,0.00,WUHU216HW,2013-11-29 19:27:00,
2013-11-29 14:32:00,48.2,31.9,30.47,NNE,23,0.0,3.4,53,0.00,,,0.00,WUHU216HW,2013-11-29 19:32:00,
2013-11-29 14:37:00,48.2,31.9,30.47,NNE,23,1.6,2.5,53,0.00,,,0.00,WUHU216HW,2013-11-29 19:37:00,
2013-11-29 14:42:00,48.1,31.7,30.47,NE,45,3.6,4.7,53,0.00,,,0.00,WUHU216HW,2013-11-29 19:42:00,
2013-11-29 14:47:00,48.2,32.3,30.47,ENE,68,1.8,4.7,54,0.00,,,0.00,WUHU216HW,2013-11-29 19:47:00,
2013-11-29 14:52:00,48.1,31.7,30.47,NNE,23,1.1,3.6,53,0.00,,,0.00,WUHU216HW,2013-11-29 19:52:00,
2013-11-29 14:57:00,48.2,31.9,30.47,SE,135,0.9,2.7,53,0.00,,,0.00,WUHU216HW,2013-11-29 19:57:00,
2013-11-29 15:02:00,48.6,32.1,30.46,NNW,338,1.1,2.7,53,0.00,,,0.00,WUHU216HW,2013-11-29 20:02:00,
2013-11-29 15:07:00,49.1,32.2,30.46,North,0,0.2,4.0,52,0.00,,,0.00,WUHU216HW,2013-11-29 20:07:00,
2013-11-29 15:12:00,49.3,32.4,30.47,NNW,338,0.9,4.0,52,0.00,,,0.00,WUHU216HW,2013-11-29 20:12:00,
2013-11-29 15:17:00,49.0,32.0,30.46,North,0,1.3,2.5,52,0.00,,,0.00,WUHU216HW,2013-11-29 20:17:00,
2013-11-29 15:22:00,48.6,31.7,30.46,ESE,113,0.4,2.5,52,0.00,,,0.00,WUHU216HW,2013-11-29 20:22:00,
2013-11-29 15:27:00,49.0,32.0,30.46,ESE,113,0.7,2.5,52,0.00,,,0.00,WUHU216HW,2013-11-29 20:27:00,
2013-11-29 15:32:00,49.3,32.4,30.46,NNE,23,0.0,3.1,52,0.00,,,0.00,WUHU216HW,2013-11-29 20:32:00,
2013-11-29 15:37:00,49.9,33.4,30.46,ESE,113,2.5,3.1,53,0.00,,,0.00,WUHU216HW,2013-11-29 20:37:00,
2013-11-29 15:42:00,50.4,33.0,30.46,East,90,3.4,3.4,51,0.00,,,0.00,WUHU216HW,2013-11-29 20:42:00,
2013-11-29 15:47:00,50.4,32.6,30.46,ESE,113,0.0,3.4,50,0.00,,,0.00,WUHU216HW,2013-11-29 20:47:00,
2013-11-29 15:52:00,50.2,32.4,30.46,ESE,113,0.0,3.4,50,0.00,,,0.00,WUHU216HW,2013-11-29 20:52:00,
2013-11-29 15:57:00,49.9,32.0,30.46,ESE,113,1.8,2.2,50,0.00,,,0.00,WUHU216HW,2013-11-29 20:57:00,
2013-11-29 16:02:00,49.3,31.5,30.47,East,90,0.0,2.0,50,0.00,,,0.00,WUHU216HW,2013-11-29 21:02:00,
2013-11-29 16:07:00,49.1,31.8,30.47,NNE,23,0.2,1.8,51,0.00,,,0.00,WUHU216HW,2013-11-29 21:07:00,
2013-11-29 16:12:00,48.8,31.4,30.47,ESE,113,1.1,1.8,51,0.00,,,0.00,WUHU216HW,2013-11-29 21:12:00,
2013-11-29 16:17:00,48.6,31.2,30.47,SE,135,0.7,2.0,51,0.00,,,0.00,WUHU216HW,2013-11-29 21:17:00,
2013-11-29 16:22:00,48.6,31.2,30.46,East,90,1.1,2.5,51,0.00,,,0.00,WUHU216HW,2013-11-29 21:22:00,
2013-11-29 16:27:00,48.1,30.7,30.47,NE,45,0.4,2.5,51,0.00,,,0.00,WUHU216HW,2013-11-29 21:27:00,
2013-11-29 16:32:00,47.7,30.9,30.47,NE,45,0.4,1.3,52,0.00,,,0.00,WUHU216HW,2013-11-29 21:32:00,
2013-11-29 16:37:00,47.3,30.5,30.47,ESE,113,0.7,1.1,52,0.00,,,0.00,WUHU216HW,2013-11-29 21:37:00,
2013-11-29 16:42:00,47.2,30.8,30.47,NNE,23,1.1,1.3,53,0.00,,,0.00,WUHU216HW,2013-11-29 21:42:00,
2013-11-29 16:47:00,47.0,30.7,30.47,NNE,23,0.0,1.3,53,0.00,,,0.00,WUHU216HW,2013-11-29 21:47:00,
2013-11-29 16:52:00,46.8,30.5,30.47,NNE,23,0.0,1.1,53,0.00,,,0.00,WUHU216HW,2013-11-29 21:52:00,
2013-11-29 16:57:00,47.0,31.2,30.47,NNE,23,0.0,1.1,54,0.00,,,0.00,WUHU216HW,2013-11-29 21:57:00,
2013-11-29 17:02:00,46.8,31.0,30.47,East,90,0.0,1.3,54,0.00,,,0.00,WUHU216HW,2013-11-29 22:02:00,
2013-11-29 17:07:00,46.8,31.0,30.47,East,90,0.0,1.3,54,0.00,,,0.00,WUHU216HW,2013-11-29 22:07:00,
2013-11-29 17:12:00,46.4,31.1,30.47,East,90,0.0,0.0,55,0.00,,,0.00,WUHU216HW,2013-11-29 22:12:00,
2013-11-29 17:17:00,46.1,30.7,30.47,East,90,0.0,0.2,55,0.00,,,0.00,WUHU216HW,2013-11-29 22:17:00,
2013-11-29 17:22:00,45.5,30.2,30.47,East,90,0.0,0.2,55,0.00,,,0.00,WUHU216HW,2013-11-29 22:22:00,
2013-11-29 17:27:00,45.0,29.8,30.47,East,90,0.0,0.0,55,0.00,,,0.00,WUHU216HW,2013-11-29 22:27:00,
2013-11-29 17:32:00,44.5,29.3,30.47,East,90,0.0,0.0,55,0.00,,,0.00,WUHU216HW,2013-11-29 22:32:00,
2013-11-29 17:37:00,43.9,28.7,30.47,East,90,0.0,0.0,55,0.00,,,0.00,WUHU216HW,2013-11-29 22:37:00,
2013-11-29 17:42:00,43.6,28.8,30.47,East,90,0.0,0.0,56,0.00,,,0.00,WUHU216HW,2013-11-29 22:42:00,
2013-11-29 17:47:00,43.0,28.4,30.47,East,90,0.0,0.0,56,0.00,,,0.00,WUHU216HW,2013-11-29 22:47:00,
2013-11-29 17:52:00,42.7,28.0,30.47,East,90,0.0,0.0,56,0.00,,,0.00,WUHU216HW,2013-11-29 22:52:00,
2013-11-29 17:57:00,42.3,28.1,30.47,East,90,0.0,0.2,57,0.00,,,0.00,WUHU216HW,2013-11-29 22:57:00,
2013-11-29 18:02:00,41.9,27.7,30.47,East,90,0.0,0.2,57,0.00,,,0.00,WUHU216HW,2013-11-29 23:02:00,
2013-11-29 18:07:00,41.8,27.5,30.47,East,90,0.0,0.0,57,0.00,,,0.00,WUHU216HW,2013-11-29 23:07:00,
2013-11-29 18:12:00,41.4,27.7,30.47,East,90,0.0,0.0,58,0.00,,,0.00,WUHU216HW,2013-11-29 23:12:00,
2013-11-29 18:17:00,41.2,27.6,30.47,East,90,0.0,0.0,58,0.00,,,0.00,WUHU216HW,2013-11-29 23:17:00,
2013-11-29 18:22:00,41.0,27.4,30.47,East,90,0.0,0.0,58,0.00,,,0.00,WUHU216HW,2013-11-29 23:22:00,
2013-11-29 18:27:00,40.7,27.5,30.47,East,90,0.0,0.0,59,0.00,,,0.00,WUHU216HW,2013-11-29 23:27:00,
2013-11-29 18:32:00,40.7,27.5,30.47,East,90,0.0,0.0,59,0.00,,,0.00,WUHU216HW,2013-11-29 23:32:00,
2013-11-29 18:37:00,40.3,27.5,30.47,East,90,0.0,0.0,60,0.00,,,0.00,WUHU216HW,2013-11-29 23:37:00,
2013-11-29 18:42:00,40.1,27.4,30.47,East,90,0.0,0.0,60,0.00,,,0.00,WUHU216HW,2013-11-29 23:42:00,
2013-11-29 18:47:00,40.0,27.2,30.47,East,90,0.0,0.0,60,0.00,,,0.00,WUHU216HW,2013-11-29 23:47:00,
2013-11-29 18:52:00,40.0,27.2,30.47,East,90,0.0,0.0,60,0.00,,,0.00,WUHU216HW,2013-11-29 23:52:00,
2013-11-29 18:57:00,39.8,27.0,30.47,East,90,0.0,0.0,60,0.00,,,0.00,WUHU216HW,2013-11-29 23:57:00,
2013-11-29 19:02:00,39.6,27.2,30.47,East,90,0.0,0.0,61,0.00,,,0.00,WUHU216HW,2013-11-30 00:02:00,
2013-11-29 19:07:00,39.2,26.8,30.47,East,90,0.0,0.0,61,0.00,,,0.00,WUHU216HW,2013-11-30 00:07:00,
2013-11-29 19:12:00,39.2,26.8,30.47,East,90,0.0,0.0,61,0.00,,,0.00,WUHU216HW,2013-11-30 00:12:00,
2013-11-29 19:17:00,39.1,26.6,30.47,East,90,0.0,0.0,61,0.00,,,0.00,WUHU216HW,2013-11-30 00:17:00,
2013-11-29 19:22:00,38.9,26.6,30.47,East,90,0.0,0.0,61,0.00,,,0.00,WUHU216HW,2013-11-30 00:22:00,
2013-11-29 19:27:00,38.7,26.7,30.47,East,90,0.0,0.0,62,0.00,,,0.00,WUHU216HW,2013-11-30 00:27:00,
2013-11-29 19:32:00,38.5,26.6,30.47,East,90,0.0,0.0,62,0.00,,,0.00,WUHU216HW,2013-11-30 00:32:00,
2013-11-29 19:37:00,38.5,26.6,30.47,East,90,0.0,0.0,62,0.00,,,0.00,WUHU216HW,2013-11-30 00:37:00,
2013-11-29 19:42:00,38.3,26.4,30.47,East,90,0.0,0.0,62,0.00,,,0.00,WUHU216HW,2013-11-30 00:42:00,
2013-11-29 19:47:00,38.2,26.3,30.47,East,90,0.0,0.0,62,0.00,,,0.00,WUHU216HW,2013-11-30 00:47:00,
2013-11-29 19:52:00,38.2,26.3,30.47,East,90,0.0,0.0,62,0.00,,,0.00,WUHU216HW,2013-11-30 00:52:00,
2013-11-29 19:57:00,38.0,26.1,30.47,East,90,0.0,0.0,62,0.00,,,0.00,WUHU216HW,2013-11-30 00:57:00,
2013-11-29 20:02:00,38.0,26.1,30.47,East,90,0.0,0.0,62,0.00,,,0.00,WUHU216HW,2013-11-30 01:02:00,
2013-11-29 20:07:00,38.0,26.5,30.47,East,90,0.0,0.0,63,0.00,,,0.00,WUHU216HW,2013-11-30 01:07:00,
2013-11-29 20:12:00,38.0,26.5,30.47,East,90,0.0,0.0,63,0.00,,,0.00,WUHU216HW,2013-11-30 01:12:00,
2013-11-29 20:17:00,37.8,26.3,30.47,East,90,0.0,0.0,63,0.00,,,0.00,WUHU216HW,2013-11-30 01:17:00,
2013-11-29 20:22:00,37.8,26.3,30.48,East,90,0.0,0.0,63,0.00,,,0.00,WUHU216HW,2013-11-30 01:22:00,
2013-11-29 20:27:00,37.8,26.3,30.47,East,90,0.0,0.0,63,0.00,,,0.00,WUHU216HW,2013-11-30 01:27:00,
2013-11-29 20:32:00,37.6,25.7,30.47,East,90,0.0,0.0,62,0.00,,,0.00,WUHU216HW,2013-11-30 01:32:00,
2013-11-29 20:37:00,37.6,25.7,30.47,East,90,0.0,0.0,62,0.00,,,0.00,WUHU216HW,2013-11-30 01:37:00,
2013-11-29 20:42:00,37.4,25.6,30.47,East,90,0.0,0.0,62,0.00,,,0.00,WUHU216HW,2013-11-30 01:42:00,
2013-11-29 20:47:00,37.4,25.6,30.47,East,90,0.0,0.0,62,0.00,,,0.00,WUHU216HW,2013-11-30 01:47:00,
2013-11-29 20:52:00,37.3,25.5,30.47,East,90,0.0,0.0,62,0.00,,,0.00,WUHU216HW,2013-11-30 01:52:00,
2013-11-29 20:57:00,37.3,25.5,30.47,East,90,0.0,0.0,62,0.00,,,0.00,WUHU216HW,2013-11-30 01:57:00,
2013-11-29 21:02:00,37.1,25.7,30.47,East,90,0.0,0.0,63,0.00,,,0.00,WUHU216HW,2013-11-30 02:02:00,
2013-11-29 21:07:00,37.1,25.7,30.47,East,90,0.0,0.0,63,0.00,,,0.00,WUHU216HW,2013-11-30 02:07:00,
2013-11-29 21:12:00,37.1,25.7,30.47,East,90,0.0,0.0,63,0.00,,,0.00,WUHU216HW,2013-11-30 02:12:00,
2013-11-29 21:17:00,37.1,25.7,30.47,East,90,0.0,0.0,63,0.00,,,0.00,WUHU216HW,2013-11-30 02:17:00,
2013-11-29 21:22:00,36.9,25.8,30.46,East,90,0.0,0.0,64,0.00,,,0.00,WUHU216HW,2013-11-30 02:22:00,
2013-11-29 21:27:00,36.7,25.7,30.46,East,90,0.0,0.0,64,0.00,,,0.00,WUHU216HW,2013-11-30 02:27:00,
2013-11-29 21:32:00,36.7,25.7,30.46,East,90,0.0,0.0,64,0.00,,,0.00,WUHU216HW,2013-11-30 02:32:00,
2013-11-29 21:37:00,36.7,25.7,30.46,East,90,0.0,0.0,64,0.00,,,0.00,WUHU216HW,2013-11-30 02:37:00,
2013-11-29 21:42:00,36.5,25.5,30.46,East,90,0.0,0.0,64,0.00,,,0.00,WUHU216HW,2013-11-30 02:42:00,
2013-11-29 21:47:00,36.5,25.5,30.47,East,90,0.0,0.0,64,0.00,,,0.00,WUHU216HW,2013-11-30 02:47:00,
2013-11-29 21:52:00,36.4,25.8,30.46,East,90,0.0,0.0,65,0.00,,,0.00,WUHU216HW,2013-11-30 02:52:00,
2013-11-29 21:57:00,36.4,25.8,30.46,East,90,0.0,0.0,65,0.00,,,0.00,WUHU216HW,2013-11-30 02:57:00,
2013-11-29 22:02:00,36.4,25.8,30.46,East,90,0.0,0.0,65,0.00,,,0.00,WUHU216HW,2013-11-30 03:02:00,
2013-11-29 22:07:00,36.4,25.8,30.46,East,90,0.0,0.0,65,0.00,,,0.00,WUHU216HW,2013-11-30 03:07:00,
2013-11-29 22:12:00,36.4,25.8,30.46,East,90,0.0,0.0,65,0.00,,,0.00,WUHU216HW,2013-11-30 03:12:00,
2013-11-29 22:17:00,36.2,25.6,30.46,East,90,0.0,0.0,65,0.00,,,0.00,WUHU216HW,2013-11-30 03:17:00,
2013-11-29 22:22:00,36.0,25.4,30.46,East,90,0.0,0.0,65,0.00,,,0.00,WUHU216HW,2013-11-30 03:22:00,
2013-11-29 22:27:00,36.0,25.8,30.46,East,90,0.0,0.0,66,0.00,,,0.00,WUHU216HW,2013-11-30 03:27:00,
2013-11-29 22:32:00,36.0,25.8,30.46,East,90,0.0,0.0,66,0.00,,,0.00,WUHU216HW,2013-11-30 03:32:00,
2013-11-29 22:37:00,36.0,25.8,30.46,East,90,0.0,0.0,66,0.00,,,0.00,WUHU216HW,2013-11-30 03:37:00,
2013-11-29 22:42:00,35.8,25.6,30.46,East,90,0.0,0.0,66,0.00,,,0.00,WUHU216HW,2013-11-30 03:42:00,
2013-11-29 22:47:00,35.8,25.6,30.45,East,90,0.0,0.0,66,0.00,,,0.00,WUHU216HW,2013-11-30 03:47:00,
2013-11-29 22:52:00,35.6,25.7,30.45,East,90,0.0,0.4,67,0.00,,,0.00,WUHU216HW,2013-11-30 03:52:00,
2013-11-29 22:57:00,35.6,25.7,30.45,East,90,0.0,0.4,67,0.00,,,0.00,WUHU216HW,2013-11-30 03:57:00,
2013-11-29 23:02:00,35.6,25.7,30.45,East,90,0.0,0.0,67,0.00,,,0.00,WUHU216HW,2013-11-30 04:02:00,
2013-11-29 23:07:00,35.5,25.6,30.45,East,90,0.0,0.0,67,0.00,,,0.00,WUHU216HW,2013-11-30 04:07:00,
2013-11-29 23:12:00,35.3,25.4,30.45,East,90,0.0,0.0,67,0.00,,,0.00,WUHU216HW,2013-11-30 04:12:00,
2013-11-29 23:17:00,35.3,25.4,30.45,East,90,0.0,0.0,67,0.00,,,0.00,WUHU216HW,2013-11-30 04:17:00,
2013-11-29 23:22:00,35.3,25.4,30.45,East,90,0.0,0.0,67,0.00,,,0.00,WUHU216HW,2013-11-30 04:22:00,
2013-11-29 23:27:00,35.1,25.2,30.45,East,90,0.0,0.2,67,0.00,,,0.00,WUHU216HW,2013-11-30 04:27:00,
2013-11-29 23:32:00,35.1,25.2,30.45,East,90,0.0,0.2,67,0.00,,,0.00,WUHU216HW,2013-11-30 04:32:00,
2013-11-29 23:37:00,34.9,25.4,30.45,East,90,0.0,0.4,68,0.00,,,0.00,WUHU216HW,2013-11-30 04:37:00,
2013-11-29 23:42:00,34.9,25.4,30.45,East,90,0.0,0.4,68,0.00,,,0.00,WUHU216HW,2013-11-30 04:42:00,
2013-11-29 23:47:00,34.9,25.4,30.45,East,90,0.0,0.0,68,0.00,,,0.00,WUHU216HW,2013-11-30 04:47:00,
2013-11-29 23:52:00,34.7,25.2,30.45,East,90,0.0,0.0,68,0.00,,,0.00,WUHU216HW,2013-11-30 04:52:00,
2013-11-29 23:57:00,34.6,25.0,30.45,East,90,0.0,0.0,68,0.00,,,0.00,WUHU216HW,2013-11-30 04:57:00,